Location: Emory University Observatory
(33.7903°N, 84.3267°W)
Time: 00:08:01
(UTC-04:00)

Tiangong 2 - Pass Details

Date: 09 October 2017
Orbit: 388 x 391 km, 42.8° (Epoch: 23 October)

Event Time Altitude Azimuth Distance (km) Brightness Sun altitude
Exits shadow 06:28:22 34° 291° (WNW) 656 1.7 -15.2°
Maximum altitude 06:29:14 45° 336° (NNW) 541 1.6 -15.0°
Drops below altitude 10° 06:32:20 10° 51° (NE) 1,421 4.7 -14.4°
Sets 06:34:29 0° 57° (ENE) 2,279 6.1 -14.0°
